Regional Weather Roundup
Issued by NWS Goodland, KS

Home | Current Version | Previous Version | Graphics & Text | Print | Product List | Glossary On
Versions: 1 2 3 4 5 6 7 8 9 10 11 12 13 14 15 16 17 18 19 20 21 22 23 24 25 26 27 28 29 30 31 32 33 34 35 36 37 38 39 40 41 42 43 44 45 46 47 48 49 50
378
ASUS43 KGLD 250959
RWRGLD

GOODLAND FORECAST AREA HOURLY WEATHER ROUNDUP
NATIONAL WEATHER SERVICE GOODLAND KS
300 AM MST SAT FEB 25 2017

...OFFICIAL OBSERVATIONS...

CITY           SKY/WX    TMP DP  RH WIND       PRES   REMARKS
GOODLAND KS    CLEAR     14  12  92 SW6       30.06F
HILL CITY KS   CLEAR     11   8  88 NW7       30.15F
IMPERIAL NEB   CLEAR      9   5  84 SW3       30.06F
MCCOOK NEB     CLEAR     11   8  88 CALM      30.11F
AKRON CO       CLOUDY    16  10  77 SW9       29.97F
BURLINGTON CO  CLOUDY    17  13  84 SW7       30.04F
LIMON CO       CLOUDY    17  13  84 SW7       29.98F
$$

...UNOFFICIAL OBSERVATIONS...

CITY           SKY/WX    TMP DP  RH WIND       PRES   REMARKS
LENORA KS        N/A     14  32 100 NW5         N/A
SHARON SPRINGS   N/A     13  10  86 SW5         N/A
TRENTON NEB      N/A     11  32 100 CALM        N/A
KIT CARSON CO    N/A     17  12  82 CALM        N/A
YUMA CO        FAIR       9   5  85 SW5       30.01F
$$




USA.gov is the U.S. government's official web portal to all federal, state and local government web resources and services.